TimeCDT,TemperatureF,Dew PointF,Humidity,Sea Level PressureIn,VisibilityMPH,Wind Direction,Wind SpeedMPH,Gust SpeedMPH,PrecipitationIn,Events,Conditions,WindDirDegrees,DateUTC
12:53 AM,63.0,53.1,70,29.99,10.0,NNW,6.9,-,N/A,,Clear,330,2013-10-06 05:53:00
1:53 AM,62.1,50.0,65,29.99,10.0,NNW,8.1,-,N/A,,Partly Cloudy,330,2013-10-06 06:53:00
2:53 AM,60.1,48.9,67,29.99,10.0,NNW,5.8,-,N/A,,Clear,330,2013-10-06 07:53:00
3:53 AM,60.1,46.9,62,29.97,10.0,North,5.8,-,N/A,,Clear,360,2013-10-06 08:53:00
4:53 AM,59.0,46.0,62,29.99,10.0,NNW,5.8,-,N/A,,Clear,340,2013-10-06 09:53:00
5:53 AM,57.9,46.9,67,30.01,10.0,Calm,Calm,-,N/A,,Clear,0,2013-10-06 10:53:00
6:53 AM,59.0,46.9,64,30.03,10.0,NNW,5.8,-,N/A,,Overcast,330,2013-10-06 11:53:00
7:53 AM,59.0,48.0,67,30.06,10.0,WNW,6.9,-,N/A,,Mostly Cloudy,300,2013-10-06 12:53:00
8:53 AM,60.1,48.9,67,30.07,10.0,NW,5.8,-,N/A,,Mostly Cloudy,320,2013-10-06 13:53:00
9:53 AM,61.0,50.0,67,30.09,10.0,WNW,3.5,-,0.00,,Partly Cloudy,300,2013-10-06 14:53:00
10:53 AM,64.9,50.0,58,30.09,10.0,NNW,8.1,-,N/A,,Clear,330,2013-10-06 15:53:00
11:53 AM,72.0,46.9,41,30.08,10.0,North,9.2,-,N/A,,Clear,360,2013-10-06 16:53:00
12:53 PM,75.0,45.0,34,30.05,10.0,NW,6.9,-,N/A,,Clear,320,2013-10-06 17:53:00
1:53 PM,75.9,42.1,30,30.02,10.0,Variable,6.9,17.3,N/A,,Clear,0,2013-10-06 18:53:00
2:53 PM,79.0,43.0,28,29.99,10.0,NNW,8.1,-,N/A,,Clear,330,2013-10-06 19:53:00
3:53 PM,79.0,39.0,24,29.97,10.0,NW,12.7,19.6,N/A,,Clear,320,2013-10-06 20:53:00
4:53 PM,78.1,36.0,22,29.97,10.0,WNW,9.2,18.4,N/A,,Clear,290,2013-10-06 21:53:00
5:53 PM,75.9,35.1,23,29.98,10.0,NW,8.1,16.1,N/A,,Clear,320,2013-10-06 22:53:00
6:53 PM,70.0,39.0,32,30.00,10.0,NNW,4.6,-,N/A,,Clear,340,2013-10-06 23:53:00
7:53 PM,66.0,42.1,42,30.02,10.0,NW,3.5,-,N/A,,Clear,320,2013-10-07 00:53:00
8:53 PM,61.0,45.0,56,30.04,10.0,Calm,Calm,-,N/A,,Clear,0,2013-10-07 01:53:00
9:53 PM,57.0,46.0,67,30.06,10.0,Calm,Calm,-,N/A,,Clear,0,2013-10-07 02:53:00
10:53 PM,54.0,46.0,75,30.06,10.0,Calm,Calm,-,N/A,,Clear,0,2013-10-07 03:53:00
11:53 PM,53.1,45.0,74,30.07,10.0,Calm,Calm,-,N/A,,Clear,0,2013-10-07 04:53:00